Le nostre stazioni meteo in Italia

Pubblicità
Il mio iltempo24.it
Palermo/Punta Raisi, Italia (16405): Temperatura & dewpoint: 21.02.2020 16:00:00 - 27.02.2020 16:00:00 (CET)Palermo/Punta Raisi, Italia (16405): velocità del vento: 21.02.2020 16:00:00 - 27.02.2020 16:00:00 (CET)Palermo/Punta Raisi, Italia (16405): direzione del vento: 21.02.2020 16:00:00 - 27.02.2020 16:00:00 (CET)Palermo/Punta Raisi, Italia (16405): reduced air pressure: 21.02.2020 16:00:00 - 27.02.2020 16:00:00 (CET)Palermo/Punta Raisi, Italia (16405): visibility: 21.02.2020 16:00:00 - 27.02.2020 16:00:00 (CET)Palermo/Punta Raisi, Italia (16405): precipitazioni: 21.02.2020 16:00:00 - 27.02.2020 16:00:00 (CET)
Data & Tempo tt [°C] td [°C] ff [km/h] ff [kn] dd ppp [hPa] vv [km] rr [mm]
27.02.2020 16:00:00 14,0 6,2 15 8 O 1018,4 10 0,0
27.02.2020 15:00:00 15,0 6,0 13 7 ONO - 10 -
27.02.2020 14:00:00 15,0 3,0 15 8 NO - 10 -
27.02.2020 13:00:00 14,4 4,4 16 9 NO 1018,7 20 -
27.02.2020 12:00:00 14,0 4,0 15 8 NNO - 10 -
27.02.2020 11:00:00 14,0 3,0 21 11 NO - 10 -
27.02.2020 10:00:00 13,8 4,7 22 12 NNO 1018,4 10 0,0
27.02.2020 09:00:00 14,0 5,0 24 13 NO - 10 -
27.02.2020 08:00:00 14,0 5,0 26 14 ONO - 10 -
27.02.2020 07:00:00 13,6 4,9 29 16 NO 1016,3 10 -
27.02.2020 06:00:00 14,0 5,0 31 17 ONO - 10 -
27.02.2020 05:00:00 14,0 7,0 34 18 ONO - 10 -
27.02.2020 04:00:00 14,3 8,1 41 22 O 1014,5 10 0,0
27.02.2020 03:00:00 15,0 8,0 39 21 O - 10 -
27.02.2020 02:00:00 15,0 9,0 44 24 O - 10 -
27.02.2020 01:00:00 14,7 8,9 39 21 O 1014,3 10 -
27.02.2020 00:00:00 15,0 10,0 41 22 O - 10 -
26.02.2020 23:00:00 15,0 10,0 31 17 OSO - 10 -
26.02.2020 22:00:00 14,8 10,3 31 17 OSO 1013,3 10 0,0
26.02.2020 21:00:00 15,0 12,0 37 20 O - 10 -
26.02.2020 20:00:00 15,0 11,0 39 21 O - 10 -
26.02.2020 19:00:00 15,4 10,4 31 17 O 1012,3 10 -
26.02.2020 18:00:00 16,0 10,0 28 15 OSO - 10 -
26.02.2020 17:00:00 16,0 10,0 26 14 OSO - 10 -
26.02.2020 16:00:00 15,8 10,6 18 10 OSO 1011,2 10 0,0
26.02.2020 15:00:00 17,0 10,0 21 11 SO - 10 -
26.02.2020 14:00:00 16,0 12,0 29 16 O - 10 -
26.02.2020 13:00:00 15,6 11,2 11 6 O 1012,0 10 -
26.02.2020 12:00:00 15,0 11,0 15 8 OSO - 10 -
26.02.2020 11:00:00 15,0 11,0 16 9 OSO - 10 -
26.02.2020 10:00:00 15,1 11,9 26 14 O 1012,6 10 0,0
26.02.2020 09:00:00 15,0 12,0 29 16 O - 10 -
26.02.2020 08:00:00 15,0 12,0 24 13 O - 10 -
26.02.2020 07:00:00 15,2 10,8 35 19 O 1011,2 10 -
26.02.2020 06:00:00 15,0 11,0 22 12 SSO - 10 -
26.02.2020 05:00:00 15,0 9,0 26 14 SSO - 10 -
26.02.2020 04:00:00 14,6 8,6 28 15 S 1011,6 10 0,0
26.02.2020 03:00:00 15,0 3,0 39 21 SSO - 10 -
26.02.2020 02:00:00 16,0 0,0 34 18 SSO - 10 -
26.02.2020 01:00:00 16,7 -2,2 28 15 SSO 1011,6 10 -
26.02.2020 00:00:00 17,0 0,0 28 15 SSO - 10 -
25.02.2020 23:00:00 17,0 0,0 28 15 SSO - 10 -
25.02.2020 22:00:00 16,6 -0,6 28 15 SSO 1013,7 10 0,0
25.02.2020 21:00:00 17,0 0,0 18 10 SSO - 10 -
25.02.2020 20:00:00 16,0 7,0 18 10 SSO - 10 -
25.02.2020 19:00:00 14,8 6,8 15 8 S 1014,4 10 -
25.02.2020 18:00:00 16,0 11,0 5 3 S - 10 -
25.02.2020 17:00:00 17,0 12,0 4 2 - - 10 -
25.02.2020 16:00:00 15,9 12,3 5 3 NNE 1014,9 10 0,0
25.02.2020 15:00:00 16,0 12,0 5 3 NNE - 10 -
25.02.2020 14:00:00 16,0 12,0 8 4 NNE - 10 -
25.02.2020 13:00:00 15,8 11,3 8 4 NNE 1016,6 10 -
25.02.2020 12:00:00 16,0 11,0 9 5 O - 10 -
25.02.2020 11:00:00 15,0 8,0 4 2 - - 10 -
25.02.2020 10:00:00 13,4 8,7 8 4 OSO 1018,6 10 0,0
25.02.2020 09:00:00 12,0 9,0 5 3 OSO - 10 -
25.02.2020 08:00:00 10,0 8,0 13 7 SO - 10 -
25.02.2020 07:00:00 10,4 8,9 4 2 ESE 1018,9 10 -
25.02.2020 06:00:00 9,0 7,0 9 5 S - 10 -
25.02.2020 05:00:00 10,0 8,0 5 3 S - 10 -
25.02.2020 04:00:00 9,6 8,0 4 2 S 1019,3 10 0,0
25.02.2020 03:00:00 10,0 8,0 5 3 SSO - 10 -
25.02.2020 02:00:00 11,0 9,0 8 4 SSO - 10 -
25.02.2020 01:00:00 10,4 8,0 4 2 - 1020,6 10 -
25.02.2020 00:00:00 11,0 9,0 5 3 SSO - 10 -
24.02.2020 23:00:00 12,0 10,0 5 3 ESE - 10 -
24.02.2020 22:00:00 11,7 10,1 9 5 SE 1021,7 10 0,0
24.02.2020 21:00:00 11,0 9,0 5 3 ESE - 10 -
24.02.2020 20:00:00 13,0 11,0 4 2 SSE - 10 -
24.02.2020 19:00:00 14,5 11,4 5 3 ONO 1022,4 10 -
24.02.2020 18:00:00 15,0 12,0 9 5 NO - 10 -
24.02.2020 17:00:00 15,0 12,0 13 7 ONO - 10 -
24.02.2020 16:00:00 15,1 12,1 28 15 ONO 1022,6 10 0,0
24.02.2020 15:00:00 15,0 12,0 26 14 ONO - 10 -
24.02.2020 14:00:00 15,0 12,0 24 13 ONO - 10 -
24.02.2020 13:00:00 15,3 11,6 21 11 ONO 1023,6 10 -
24.02.2020 12:00:00 15,0 10,0 16 9 O - 10 -
24.02.2020 11:00:00 16,0 9,0 22 12 SO - 10 -
24.02.2020 10:00:00 14,7 9,2 21 11 SO 1024,9 10 0,0
24.02.2020 09:00:00 14,0 10,0 18 10 SO - 10 -
24.02.2020 08:00:00 13,0 9,0 16 9 SO - 10 -
24.02.2020 07:00:00 10,0 6,6 13 7 S 1025,0 10 -
24.02.2020 06:00:00 10,0 7,0 11 6 S - 10 -
24.02.2020 05:00:00 11,0 7,0 11 6 SSO - 10 -
24.02.2020 04:00:00 10,5 7,2 15 8 S 1025,7 10 0,0
24.02.2020 03:00:00 10,0 6,0 11 6 SSO - 10 -
24.02.2020 02:00:00 11,0 8,0 11 6 SO - 10 -
24.02.2020 01:00:00 13,3 8,9 15 8 SO 1027,8 10 -
24.02.2020 00:00:00 12,0 9,0 18 10 SO - 10 -
23.02.2020 23:00:00 11,0 9,0 9 5 SSO - 10 -
23.02.2020 22:00:00 13,0 9,0 8 4 OSO - 10 -
23.02.2020 21:00:00 14,0 11,0 13 7 NO - 10 -
23.02.2020 20:00:00 13,0 9,0 4 2 - - 10 -
23.02.2020 19:00:00 14,0 10,0 8 4 O - 10 -
23.02.2020 18:00:00 15,0 10,0 5 3 SO - 10 -
23.02.2020 17:00:00 15,0 10,0 5 3 O - 10 -
23.02.2020 16:00:00 15,0 9,0 9 5 O - 10 -
23.02.2020 15:00:00 16,0 10,0 5 3 ONO - 10 -
23.02.2020 14:00:00 15,0 9,0 9 5 OSO - 10 -
23.02.2020 13:00:00 15,4 8,8 5 3 SO 1032,5 10 -
23.02.2020 12:00:00 15,0 8,0 8 4 OSO - 10 -
23.02.2020 11:00:00 15,0 8,0 5 3 O - 10 -
23.02.2020 10:00:00 14,2 7,3 5 3 O 1032,9 10 0,0
23.02.2020 09:00:00 13,0 7,0 5 3 SSE - 10 -
23.02.2020 08:00:00 9,0 5,0 9 5 S - 10 -
23.02.2020 07:00:00 9,0 4,4 9 5 SSE 1032,1 10 -
23.02.2020 06:00:00 9,0 4,0 9 5 S - 10 -
23.02.2020 05:00:00 10,0 4,0 8 4 S - 10 -
23.02.2020 04:00:00 9,2 3,8 9 5 SSO 1031,6 10 0,0
23.02.2020 03:00:00 10,0 3,0 5 3 S - 10 -
23.02.2020 02:00:00 9,0 3,0 11 6 S - 10 -
23.02.2020 01:00:00 11,4 3,1 9 5 E 1033,1 10 -
23.02.2020 00:00:00 13,0 4,0 16 9 NE - 10 -
22.02.2020 23:00:00 12,0 3,0 9 5 ENE - 10 -
22.02.2020 22:00:00 11,3 2,4 9 5 ENE 1032,1 10 0,0
22.02.2020 21:00:00 12,0 2,0 13 7 ENE - 10 -
22.02.2020 20:00:00 13,0 4,0 21 11 ENE - 10 -
22.02.2020 19:00:00 13,4 5,2 26 14 ENE 1030,5 10 -
22.02.2020 18:00:00 14,0 6,0 24 13 ENE - 10 -
22.02.2020 17:00:00 15,0 9,0 26 14 ENE - 10 -
22.02.2020 16:00:00 15,4 9,1 28 15 NE 1029,5 10 0,0
22.02.2020 15:00:00 15,0 9,0 21 11 NE - 10 -
22.02.2020 14:00:00 15,0 9,0 16 9 NE - 10 -
22.02.2020 13:00:00 15,1 9,3 18 10 NE 1029,4 10 -
22.02.2020 12:00:00 15,0 8,0 18 10 ENE - 10 -
22.02.2020 11:00:00 - - - - - - - -
22.02.2020 10:00:00 14,7 8,1 18 10 ENE 1028,6 10 0,0
22.02.2020 09:00:00 13,0 7,0 16 9 E - 10 -
22.02.2020 08:00:00 12,0 7,0 21 11 E - 10 -
22.02.2020 07:00:00 11,7 6,9 16 9 E 1027,0 10 -
22.02.2020 06:00:00 11,0 7,0 16 9 ENE - 10 -
22.02.2020 05:00:00 10,0 7,0 15 8 ENE - 10 -
22.02.2020 04:00:00 10,5 7,2 13 7 ENE 1025,7 10 0,0
22.02.2020 03:00:00 9,0 7,0 5 3 SSE - 10 -
22.02.2020 02:00:00 10,0 7,0 2 1 - - 10 -
22.02.2020 01:00:00 9,6 6,5 5 3 S 1025,6 10 -
22.02.2020 00:00:00 11,0 7,0 5 3 ESE - 10 -
21.02.2020 23:00:00 - - - - - - - -
21.02.2020 22:00:00 - - - - - - - -
21.02.2020 21:00:00 - - - - - - - -
21.02.2020 20:00:00 12,0 8,0 5 3 E - 10 -
21.02.2020 19:00:00 12,4 8,0 4 2 - 1025,5 10 -
21.02.2020 18:00:00 14,0 9,0 4 2 - - 10 -
21.02.2020 17:00:00 15,0 8,0 5 3 ONO - 10 -
21.02.2020 16:00:00 15,0 8,4 5 3 ONO 1025,0 10 0,0

tt = Temperatura
td = dewpoint
ff = velocità del vento
dd = direzione del vento
ppp = reduced air pressure
vv = visibility
rr = precipitazioni

Stazioni seguenti

WeatherPro
AMSI
MeteoEarth